Home > Weather > Adelaide > Past weeks

Flag for Australia Past Weather in Adelaide, South Australia, Australia — Yesterday and Last 2 Weeks

Now
54 °F

Scattered showers. Broken clouds.


Feels Like: 48 °F
Forecast: 50 / 56 °F
Wind: 22 mph from Northwest

Location: Adelaide Airport

Current Time: Jul 26, 2016 at 2:13:53 PM

Latest Report: Jul 26, 2016 at 1:30 PM


Visibility: N/A

Pressure: 29.86 "Hg

Humidity: 77%

Dew Point: 46 °F

Location of AdelaideLocation

Past Weather in Adelaide — Graph

°F

Adelaide Temperature Yesterday

Maximum temperature yesterday: 55 °F (at 12:30 PM)
Minimum temperature yesterday: 50 °F (at 3:00 AM)
Average temperature yesterday: 53 °F

High & Low Weather Summary for the Past Weeks

 TemperatureHumidityPressure
High72 °F (Jul 21, 1:30 PM)100% (Jul 19, 3:20 AM)30.54 "Hg (Jul 19, 3:20 AM)
Low37 °F (Jul 16, 4:30 AM)39% (Jul 16, 3:30 PM)29.53 "Hg (Jul 22, 1:30 PM)
Average54 °F73%30.06 "Hg
* Reported Jul 11 12:30 PM — Jul 26 12:30 PM, Adelaide, Weather by CustomWeather, © 2016

Note: Actual official high and low records may vary slightly from our data, if they occured in-between our weather recording intervals... More about our weather records

Advertising

Adelaide Weather History for the Previous 24 Hours

Scroll right to see more
 ConditionsComfort  
Time TempWeatherWind HumidityBarometerVisibility
12:30 PM
Tue, Jul 26
54 °FPartly sunny.17 mph72%29.92 "HgN/A
12:00 PM54 °FScattered showers. Partly sunny.22 mph67%29.95 "HgN/A
11:30 AM54 °FPartly sunny.21 mph72%29.95 "HgN/A
11:00 AM54 °FPartly sunny.21 mph72%29.95 "HgN/A
10:30 AM54 °FPartly sunny.20 mph67%29.98 "HgN/A
10:00 AM54 °FPartly sunny.20 mph67%29.98 "HgN/A
9:30 AM54 °FScattered clouds.17 mph67%29.98 "Hg6 mi
9:00 AM52 °FBroken clouds.15 mph72%29.98 "Hg6 mi
8:30 AM52 °FPassing clouds.13 mph72%29.98 "Hg6 mi
8:00 AM50 °FPassing clouds.10 mph76%29.98 "Hg6 mi
7:30 AM50 °FScattered clouds.16 mph76%29.98 "HgN/A
7:00 AM50 °FPartly sunny.15 mph76%29.98 "HgN/A
6:30 AM50 °FPassing clouds.15 mph76%29.98 "HgN/A
6:00 AM50 °FPassing clouds.16 mph76%29.98 "HgN/A
5:30 AM52 °FPassing clouds.13 mph67%29.98 "HgN/A
5:00 AM50 °FPassing clouds.17 mph71%29.98 "HgN/A
4:30 AM52 °FPassing clouds.16 mph67%29.98 "HgN/A
4:00 AM50 °FClear.14 mph71%29.98 "Hg10 mi
3:30 AM52 °FPassing clouds.17 mph62%29.98 "HgN/A
3:00 AM52 °FClear.18 mph67%30.01 "Hg10 mi
2:30 AM52 °FClear.14 mph62%30.01 "Hg10 mi
2:00 AM50 °FClear.15 mph76%30.01 "Hg10 mi
1:30 AM52 °FClear.14 mph62%30.01 "Hg10 mi
1:00 AM52 °FClear.15 mph62%30.01 "Hg10 mi
12:30 AM52 °FClear.16 mph62%30.01 "Hg10 mi
12:00 AM52 °FClear.20 mph58%30.01 "Hg10 mi
11:30 PM
Mon, Jul 25
52 °FClear.15 mph58%30.01 "Hg10 mi
11:00 PM52 °FClear.17 mph67%30.01 "Hg10 mi
10:30 PM50 °FClear.12 mph76%30.01 "HgN/A
9:30 PM52 °FPassing clouds.15 mph72%30.01 "HgN/A
9:00 PM50 °FPassing clouds.18 mph82%30.01 "HgN/A
8:30 PM50 °FSprinkles. Partly cloudy.24 mph76%30.01 "Hg4 mi
8:25 PM52 °FSprinkles. Passing clouds.24 mph67%30.01 "Hg4 mi
7:30 PM54 °FPassing clouds.23 mph51%29.98 "HgN/A
7:21 PM54 °FPartly cloudy.21 mph54%29.98 "HgN/A
6:30 PM54 °FSprinkles. Partly cloudy.20 mph77%29.98 "Hg6 mi
6:00 PM54 °FPartly cloudy.20 mph77%29.95 "HgN/A
5:30 PM54 °FScattered showers. Overcast.17 mph77%29.95 "Hg6 mi
5:00 PM54 °FScattered showers. Mostly cloudy.20 mph77%29.92 "HgN/A
4:30 PM54 °FSprinkles. Partly sunny.21 mph77%29.92 "HgN/A
4:00 PM54 °FScattered showers. More clouds than sun.24 mph94%29.92 "Hg5 mi
3:30 PM54 °FSprinkles. Cloudy.20 mph94%29.89 "Hg3 mi
3:16 PM54 °FLots of rain. Cloudy.20 mph94%29.89 "Hg1 mi
2:30 PM55 °FScattered showers. More clouds than sun.26 mph82%29.86 "Hg6 mi
2:00 PM55 °FSprinkles. Broken clouds.21 mph88%29.89 "Hg4 mi
Weather by CustomWeather, © 2016

See weather overviewHow to use our weather pages